This is the latest recevied weather packets stored in our database for station/object KG4ZVW. If no packets are shown the sender has not sent any weather packets the latest 10 day(s).
| Time | Temp. | Humidity | Pressure | Rain* | Wind** | Luminosity | Snow |
|---|---|---|---|---|---|---|---|
| 1777462407 | 20.56° C | 88% | 1015.9 hPa | 0 mm | - | 116 W/m² | - |
| 1777462104 | 20.56° C | 87% | 1015.9 hPa | 0 mm | - | 83 W/m² | - |
| 1777461798 | 20.56° C | 87% | 1015.5 hPa | 0 mm | - | 72 W/m² | - |
| 1777461517 | 20.56° C | 87% | 1015.5 hPa | 0 mm | - | 33 W/m² | - |
| 1777461212 | 20.56° C | 87% | 1015.5 hPa | 0 mm | - | 46 W/m² | - |
| 1777460906 | 20.56° C | 87% | 1015.2 hPa | 0 mm | - | 18 W/m² | - |
| 1777460601 | 20.56° C | 87% | 1015.2 hPa | 0 mm | - | 16 W/m² | - |
| 1777460311 | 20.56° C | 87% | 1015.2 hPa | 0 mm | - | 14 W/m² | - |
| 1777460005 | 20.56° C | 87% | 1015 hPa | 0 mm | - | 9 W/m² | - |
| 1777459701 | 20.56° C | 87% | 1015 hPa | 0 mm | - | 7 W/m² | - |
| 1777459115 | 20.56° C | 87% | 1015.4 hPa | 0 mm | - | 0 W/m² | - |
| 1777458810 | 20.56° C | 87% | 1015.4 hPa | 0 mm | - | 0 W/m² | - |
| 1777458508 | 20.56° C | 86% | 1015.4 hPa | 0 mm | - | 0 W/m² | - |
| 1777458203 | 20.56° C | 86% | 1015.4 hPa | 0 mm | - | 0 W/m² | - |
| 1777457916 | 20.56° C | 86% | 1015.4 hPa | 0 mm | - | 0 W/m² | - |
| 1777457613 | 20.56° C | 86% | 1015.4 hPa | 0 mm | - | 0 W/m² | - |
| 1777457308 | 20.56° C | 86% | 1015 hPa | 0 mm | - | 0 W/m² | - |
| 1777457005 | 20.56° C | 85% | 1015 hPa | 0 mm | - | 0 W/m² | - |
| 1777456701 | 20.56° C | 85% | 1015 hPa | 0 mm | - | 0 W/m² | - |
| 1777456111 | 20.56° C | 84% | 1014.7 hPa | 0 mm | - | 0 W/m² | - |
| 1777455520 | 20.56° C | 84% | 1014.6 hPa | 0 mm | - | 0 W/m² | - |
| 1777455215 | 20.56° C | 82% | 1014.6 hPa | 0 mm | - | 0 W/m² | - |
| 1777454910 | 20.56° C | 82% | 1014.6 hPa | 0 mm | - | 0 W/m² | - |
| 1777454605 | 21.11° C | 82% | 1014.6 hPa | 0 mm | - | 0 W/m² | - |
| 1777454301 | 21.11° C | 82% | 1014.6 hPa | 0 mm | - | 0 W/m² | - |
* Rain latest hour (hover to see other rain measurements)
** Current wind speed in m/s (hover to see current wind gust speed)